Current weather by "City, St" or "zip code"  
 

Current Conditions: KINGSVILLE NAS

Partly Cloudy


86.0 F

Last Updated on Jun 17 2024, 10:56 PM CDT
Humidity: 70%
Wind Speed: SE 12.8 mph
Barometer 29.78 in
Dewpoint: 75.2 F
Visibility: 10.00 mi
Precip: --
Heat Index: 95.2 F
Wind Chill: NA
Current conditions at:

KINGSVILLE NAS (KNQI)

Lat: 27.5 Lon: 97.8199999

active severe weather and emergency alerts image image weather storm and storm spotter reports image weather observation monitoring service image
Active
Alerts
Storm Reports Obs
Monitoring

Sign-up For Email & Text Message Weather Alert Notification Services



Advertise Here

Observation History for KINGSVILLE NAS


Time Wind
(mph)
Vis
(mi)
Weather Precip (in) Temperature (F) Relative
Humidity
Wind
Chill
(F)
Heat
Index
(F)
Pressure
Air Dwpt altimeter
(in)
sea level
(mb)
Rmks
10:56 PM CDT SE 12.8 10.00 Partly Cloudy -- 86.0 75.2 70% NA 95.2 29.78 1008.5
09:56 PM CDT SE 13.9 10.00 Partly Cloudy -- 84.9 75.0 72% NA 93.4 29.78 1008.5
08:56 PM CDT SE 13.9 10.00 Mostly Cloudy Trace 84.0 77.0 80% NA 93.9 29.77 1008.1
07:56 PM CDT SE 15.0 10.00 Mostly Cloudy Trace 89.1 75.0 63% NA 99.3 29.75 1007.5
06:56 PM CDT 18.3 10.00 Partly Cloudy -- 91.0 75.9 61% NA 103.1 29.73 1006.8
05:56 PM CDT 17.2 10.00 Partly Cloudy -- 93.9 75.9 56% NA 106.9 29.72 1006.4
04:56 PM CDT 23.0 10.00 Mostly Cloudy and Windy -- 93.9 75.9 56% NA 106.9 29.73 1006.8
03:56 PM CDT SE 20.8 10.00 Mostly Cloudy and Windy -- 97.0 75.0 50% NA 109.8 29.73 1006.8
02:56 PM CDT 10.00 Partly Cloudy -- 100.0 75.0 45% NA 113.7 29.74 1007.1
10:56 AM CDT SE 11.4 10.00 Partly Cloudy -- 93.9 75.9 56% NA 106.9 29.77 1008.1
07:56 AM CDT 4.7 10.00 Partly Cloudy -- 82.9 79.0 88% NA 93.7 29.77 1008.1
06:56 AM CDT 4.7 10.00 NULL -- 82.0 78.1 88% NA 91.0 29.76 1007.8
05:56 AM CDT SE 4.7 10.00 Mostly Clear Trace 82.0 77.0 85% NA 90.1 29.76 1007.8
04:56 AM CDT S 4.7 10.00 Partly Cloudy -- 82.9 75.9 79% NA 91.0 29.76 1007.8
02:56 AM CDT 8.1 10.00 Partly Cloudy -- 84.9 75.9 75% NA 94.3 29.78 1008.5
01:56 AM CDT SE 8.1 10.00 Clear -- 86.0 75.9 72% NA 95.9 29.78 1008.5
12:56 AM CDT SE 10.3 10.00 Clear -- 87.1 77.0 72% NA 98.8 29.81 1009.5
11:56 PM CDT SE 8.1 10.00 Partly Cloudy -- 86.0 77.0 75% NA 97.2 29.81 1009.5
10:56 PM CDT 9.2 10.00 Clear -- 86.0 75.9 72% NA 95.9 29.81 1009.5
08:56 PM CDT 15.0 10.00 Clear -- 88.0 75.9 68% NA 98.8 29.77 1008.1
07:56 PM CDT 17.2 10.00 Clear -- 90.0 75.9 64% NA 101.7 29.76 1007.8
06:56 PM CDT 15.0 10.00 Clear -- 93.0 75.0 56% NA 104.5 29.76 1007.8
05:56 PM CDT 16.1 10.00 Partly Cloudy -- 97.0 73.9 48% NA 108.3 29.75 1007.5
04:56 PM CDT 10.00 Mostly Clear -- 98.1 72.0 43% NA 107.4 29.75 1007.5

Regional Weather Observation


ORANGE GROVE (KNOG)

Clear
NULL F

KINGSVILLE (KIKG)

Mostly Cloudy
NULL F

KINGSVILLE NAS (KNQI)

Partly Cloudy
86.0 F

ROBSTOWN/NUECES (KRBO)

Clear
82.4 F

CORPUS CHRISTI (KCRP)

Mostly Clear
84.9 F

C. CHRISTI NAS (KNGP)

Mostly Cloudy
82.9 F

Advertise Here


Advertise Here